Location: Buchberg
(46.9333°N, 15.8500°E)
Time: 04:26:48
(UTC+00:00)

Cosmos 407 Rocket - Pass Details

Date: 14 July 2020
Orbit: 744 x 786 km, 74.0° (Epoch: 11 August)

Event Time Altitude Azimuth Distance (km) Brightness Sun altitude
Exits shadow 00:55:12 29° 210° (SSW) 1,420 4.3 -16.9°
Maximum altitude 00:58:02 78° 292° (WNW) 808 3.5 -16.7°
Drops below altitude 10° 01:03:25 10° 20° (NNE) 2,356 7.3 -16.2°
Sets 01:05:49 0° 22° (NNE) 3,287 8.5 -16.0°
